Preview of NWS' New Version of Forecast
This preview is not operational and should not be used for support decisions.

Regional Weather Roundup (RWR)

Issued by National Weather Service (NWS)

                            
000
ASUS44 KJAN 150410
RWRMS 

MISSISSIPPI HOURLY WEATHER ROUNDUP
NATIONAL WEATHER SERVICE JACKSON MS
1100 PM CDT SAT SEP 14 2019

NOTE: "FAIR: INDICATES FEW OR NO CLOUDS BELOW 12,000 FEET WITH NO
SIGNIFICANT WEATHER AND/OR OBSTRUCTIONS TO VISIBILITY.

MSZ001>002-007>008-010>013-018>021-025>028-034>036-150500-
NORTHWEST MISSISSIPPI
  
CITY           SKY/WX    TMP DP  RH WIND       PRES   REMARKS
BATESVILLE       N/A     75  73  94 CALM      30.13S                  
CLARKSDALE       N/A     77  73  88 CALM      30.13S                  
CLEVELAND      FAIR      79  71  76 E3        30.11S                  
GREENWOOD      FAIR      79  72  79 NE5       30.11S                  
GREENVILLE     FAIR      80  70  71 E5        30.10S                  
OLIVE BRANCH     N/A     81  70  69 NE3       30.14S                  
OXFORD         FAIR      75  70  83 CALM      30.15S                  
TUNICA           N/A     75  68  78 NE3       30.14S                  
WINONA         FAIR      75  73  93 CALM      30.12S                  
$$

MSZ003>006-009-014>017-022>024-029>033-037>039-150500-
NORTHEAST MISSISSIPPI
  
CITY           SKY/WX    TMP DP  RH WIND       PRES   REMARKS
ABERDEEN       FAIR      73  55  53 N3        30.14S                  
COLUMBUS AFB   FAIR      80  71  75 E5        30.12S                  
CORINTH        FAIR      75  73  94 CALM      30.15S FOG              
GOLDN TRIANGLE FAIR      81  75  82 NE5       30.13F                  
STARKVILLE       N/A     77  72  83 CALM      30.14S                  
TUPELO         FAIR      80  71  74 E5        30.14S                  
$$

MSZ040-058-150500-
CENTRAL MISSISSIPPI
  
CITY           SKY/WX    TMP DP  RH WIND       PRES   REMARKS
JACKSON INTL   FAIR      80  67  64 E5        30.10S                  
JACKSON HAWKNS FAIR      83  67  58 E3        30.10S                  
MADISON        FAIR      79  70  73 NE3       30.11S                  
MERIDIAN KEY   FAIR      78  70  76 CALM      30.11S                  
MERIDIAN NAS   FAIR      79  70  74 NE5       30.12S                  
RAYMOND        FAIR      73  73 100 CALM      30.09S                  
VICKSBURG VKS  CLEAR     75  75 100 CALM      30.09S                  
$$

MSZ059>079-150500-
SOUTH MISSISSIPPI
  
CITY           SKY/WX    TMP DP  RH WIND       PRES   REMARKS
BROOKHAVEN     FAIR      73  70  88 CALM      30.11S                  
HATTIESBURG    FAIR      77  71  82 CALM      30.09R                  
LAUREL         CLEAR     77  71  82 CALM      30.09F                  
MCCOMB         FAIR      81  68  64 NE3       30.09R                  
NATCHEZ        FAIR      74  70  87 CALM      30.09S                  
PINE BELT      FAIR      76  71  85 NE3       30.10S HAZE             
$$

MSZ080>082-150500-
COASTAL MISSISSIPPI
  
CITY           SKY/WX    TMP DP  RH WIND       PRES   REMARKS
BILOXI         FAIR      82  76  82 CALM      30.06R                  
PASCAGOULA     FAIR      76  73  91 CALM      30.06S                  
GULFPORT       FAIR      80  73  79 NW3       30.05S                  
$$

LAZ007>009-015>016-023>026-150500-
NORTHEAST LOUISIANA
  
CITY           SKY/WX    TMP DP  RH WIND       PRES   REMARKS
BASTROP        FAIR      76  70  81 CALM      30.11R                  
TALLULAH/VBURG FAIR      77  70  79 CALM      30.09R                  
VIDALIA        FAIR      75  68  78 CALM      30.07S                  
$$